TimePST,TemperatureF,Dew PointF,Humidity,Sea Level PressureIn,VisibilityMPH,Wind Direction,Wind SpeedMPH,Gust SpeedMPH,PrecipitationIn,Events,Conditions,WindDirDegrees,DateUTC
12:56 AM,59.0,46.9,64,29.96,10.0,SSE,11.5,-,N/A,,Clear,160,2012-12-03 08:56:00
1:56 AM,57.0,48.0,72,29.99,10.0,South,16.1,-,N/A,,Clear,190,2012-12-03 09:56:00
2:00 AM,-9999,-9999,N/A,-9999,-9999.0,North,-9999.0,-,N/A,,Unknown,0,2012-12-03 10:00:00
2:56 AM,60.1,44.1,55,29.98,10.0,SSW,17.3,25.3,N/A,,Clear,210,2012-12-03 10:56:00
3:56 AM,57.9,44.1,60,29.98,10.0,SSW,9.2,-,N/A,,Clear,200,2012-12-03 11:56:00
4:56 AM,57.9,42.1,56,29.99,10.0,SW,13.8,-,N/A,,Partly Cloudy,230,2012-12-03 12:56:00
5:56 AM,54.0,41.0,62,30.02,10.0,SW,8.1,-,N/A,,Scattered Clouds,230,2012-12-03 13:56:00
6:56 AM,48.9,41.0,74,30.05,10.0,Calm,Calm,-,N/A,,Mostly Cloudy,0,2012-12-03 14:56:00
7:56 AM,51.1,41.0,68,30.07,10.0,SW,6.9,-,N/A,,Mostly Cloudy,230,2012-12-03 15:56:00
8:56 AM,57.0,41.0,55,30.09,10.0,NW,8.1,-,N/A,,Mostly Cloudy,310,2012-12-03 16:56:00
9:56 AM,61.0,42.1,50,30.10,10.0,WNW,3.5,-,N/A,,Mostly Cloudy,290,2012-12-03 17:56:00
10:56 AM,64.0,42.1,45,30.09,10.0,ENE,5.8,-,N/A,,Mostly Cloudy,70,2012-12-03 18:56:00
11:56 AM,64.9,39.9,40,30.07,10.0,Calm,Calm,-,N/A,,Mostly Cloudy,0,2012-12-03 19:56:00
12:56 PM,68.0,37.9,33,30.06,10.0,Calm,Calm,-,N/A,,Mostly Cloudy,0,2012-12-03 20:56:00
1:56 PM,69.1,37.9,32,30.05,10.0,Variable,3.5,-,N/A,,Mostly Cloudy,0,2012-12-03 21:56:00
2:56 PM,68.0,41.0,37,30.06,10.0,East,5.8,-,N/A,,Mostly Cloudy,80,2012-12-03 22:56:00
3:56 PM,66.9,39.9,37,30.08,10.0,Calm,Calm,-,N/A,,Mostly Cloudy,0,2012-12-03 23:56:00
4:56 PM,63.0,39.0,41,30.10,10.0,Calm,Calm,-,N/A,,Mostly Cloudy,0,2012-12-04 00:56:00
5:56 PM,57.0,37.0,47,30.13,10.0,Calm,Calm,-,N/A,,Mostly Cloudy,0,2012-12-04 01:56:00
6:56 PM,54.0,37.0,53,30.16,10.0,South,5.8,-,N/A,,Mostly Cloudy,190,2012-12-04 02:56:00
7:56 PM,52.0,36.0,54,30.18,10.0,South,6.9,-,N/A,,Mostly Cloudy,190,2012-12-04 03:56:00
8:56 PM,50.0,36.0,59,30.18,10.0,SSW,5.8,-,N/A,,Scattered Clouds,200,2012-12-04 04:56:00
9:56 PM,48.0,36.0,63,30.18,10.0,West,4.6,-,N/A,,Partly Cloudy,260,2012-12-04 05:56:00
10:56 PM,48.9,35.1,59,30.20,10.0,WSW,8.1,-,N/A,,Clear,240,2012-12-04 06:56:00
11:56 PM,46.9,34.0,61,30.21,10.0,Calm,Calm,-,N/A,,Clear,0,2012-12-04 07:56:00